Location: Laas
(43.4693°N, 0.3073°E)
Time: 15:13:24
(UTC+00:00)

Cosmos 1745 Rocket - Pass Details

Date: 25 October 2020
Orbit: 953 x 997 km, 83.0° (Epoch: 23 November)

Event Time Altitude Azimuth Distance (km) Brightness Sun altitude
Rises 18:11:44 0° 358° (N) 3,686 7.0 -13.7°
Reaches altitude 10° 18:14:25 10° 5° (N) 2,741 6.3 -14.2°
Maximum altitude 18:20:21 42° 75° (ENE) 1,378 4.3 -15.3°
Drops below altitude 10° 18:26:17 10° 145° (SE) 2,749 6.0 -16.4°
Sets 18:28:58 0° 153° (SSE) 3,698 6.8 -16.9°
